[[{"header":{"parameterUnit":"m.s-1","parameterCategory":1,"la1":30.2991,"la2":30.254,"lo1":-89.0895,"lo2":-89.0444,"dy":0.0017,"dx":0.0017,"nx":28,"ny":28,"refTime":"2024-03-24T21:00:00:Z","depth":0,"parameterNumber":2,"parameterNumberName":"U-component_of_WINDS"},"data":[0,0,0,0,0,0,0,0,0,0,0,0,0,0,0,0,0,0,0,0,0,0,0,0,0,0,0,0,0,0,0,0,0,0,0,0,0,0,0,0,0,0,0,0,0,0,0,0,0,0,0,0,0,0,0,0,0,0,1.9573,1.9572,0,1.9438,1.9436,1.9435,1.9396,1.9396,1.9397,1.9398,1.926,1.9255,1.9251,0,0,0,0,0,0,0,0,0,0,0,0,0,1.9801,1.9797,1.9573,1.9571,1.957,1.9438,1.9436,1.9434,1.9396,1.9396,1.9397,1.9398,1.9261,1.9256,1.9251,0,0,0,0,0,0,0,0,0,0,0,0,0,1.9688,1.9796,1.9573,1.9535,1.953,1.9438,1.9436,1.9434,1.9395,1.9396,1.9398,1.9399,1.9263,1.9256,1.925,1.9188,0,0,1.923,1.9227,0,0,0,0,0,0,0,0,1.9694,1.9679,1.9542,1.9537,1.9531,1.9435,1.9466,1.9351,1.9395,1.9446,1.9398,1.9399,1.9317,1.9306,1.9278,1.9181,1.9175,1.9229,1.9225,1.9223,1.9221,0,0,0,0,0,0,0,1.9702,1.9685,1.9519,1.954,1.9534,1.9525,1.951,1.9444,1.9377,1.9442,1.9439,1.9423,1.9314,1.9285,1.9275,1.9173,1.923,1.9224,1.922,1.9217,1.9022,1.9021,0,0,0,0,0,0,1.9716,1.9692,1.9524,1.9515,1.9617,1.952,1.9503,1.9465,1.9378,1.9366,1.9423,1.9422,1.9295,1.9282,1.927,1.9193,1.9223,1.9217,1.9213,1.9023,1.9022,1.902,0,0,0,0,0,0,1.9721,1.9702,1.9529,1.9603,1.958,1.9515,1.9472,1.9461,1.9432,1.9363,1.9351,1.9404,1.9296,1.9279,1.9209,1.9188,1.9214,1.9208,1.9025,1.9023,1.9021,1.9038,0,0,0,0,0,0,1.9728,1.9704,1.9678,1.9602,1.9576,1.947,1.947,1.9458,1.942,1.9418,1.9343,1.9331,1.9295,1.9219,1.9203,1.9179,1.9203,1.9026,1.9024,1.9021,1.9039,1.9037,1.9036,0,0,0,0,0,1.9736,1.9688,1.9677,1.9657,1.9543,1.9469,1.9454,1.9413,1.9419,1.9394,1.935,1.9334,1.9193,1.9212,1.9193,1.9168,1.9027,1.9024,1.9022,1.904,1.9038,1.9036,0,0,0,0,0,0,1.9762,1.9677,1.9664,1.959,1.9537,1.9462,1.9429,1.9411,1.9356,1.9356,1.9308,1.9292,1.9226,1.919,1.9213,1.9105,1.911,1.9103,1.9131,1.9128,1.9126,1.9136,1.9197,0,0,0,0,0,1.9759,1.9705,1.9634,1.9575,1.955,1.9494,1.946,1.9434,1.9377,1.9354,1.9306,1.9252,1.9196,1.916,1.9104,1.9034,1.9019,1.9008,1.9006,1.9005,1.8999,1.8963,1.8958,1.9011,1.9011,1.9011,0,0,1.9752,1.9699,1.9668,1.9579,1.9535,1.9482,1.9475,1.9418,1.9379,1.9346,1.9277,1.924,1.9177,1.9108,1.9075,1.9076,1.8982,1.9001,1.9001,1.8996,1.896,1.8955,1.895,1.9009,1.9009,1.901,0,0,1.9713,1.9667,1.9614,1.9571,1.9505,1.9469,1.9457,1.9385,1.9359,1.929,1.9265,1.9218,1.9121,1.9079,1.9044,1.8993,1.8977,1.8976,1.8966,1.8931,1.8927,1.8923,1.8907,1.8901,1.8971,1.8971,1.8971,0,1.9713,1.9631,1.9589,1.9534,1.9497,1.9466,1.9414,1.9374,1.9293,1.9269,1.9271,1.9152,1.9106,1.9028,1.9017,1.8989,1.8975,1.8984,1.8931,1.8927,1.8922,1.8906,1.89,1.8972,1.8972,1.8972,1.8972,0,1.9636,1.9579,1.9545,1.9469,1.9428,1.9374,1.9326,1.929,1.9268,1.9233,1.9164,1.911,1.9044,1.9024,1.9001,1.8943,1.8946,1.894,1.8944,1.8919,1.8903,1.8896,1.8973,1.8972,1.8972,1.8972,0,0,1.9606,1.9511,1.9499,1.9465,1.9392,1.9348,1.9295,1.9231,1.9202,1.9148,1.9103,1.9024,1.9019,1.898,1.8953,1.8922,1.8889,1.8921,1.8918,1.8918,1.8824,1.883,1.8823,1.8878,1.8876,1.8875,1.883,0,1.9559,1.9462,1.9425,1.9346,1.9295,1.9267,1.9221,1.9171,1.9138,1.909,1.9053,1.8999,1.8995,1.8972,1.894,1.8899,1.8869,1.8902,1.8837,1.8835,1.8854,1.8815,1.8819,1.8779,1.8824,1.8822,1.8822,0,1.949,1.9437,1.9354,1.929,1.9267,1.9226,1.9166,1.9121,1.9066,1.9044,1.9002,1.8978,1.8922,1.8931,1.8855,1.8879,1.885,1.8827,1.8824,1.8817,1.8827,1.8807,1.8765,1.876,1.8811,1.8812,1.8813,0,1.948,1.9388,1.9327,1.9299,1.9222,1.9194,1.9161,1.9107,1.9072,1.902,1.8998,1.894,1.8909,1.8866,1.8827,1.8836,1.8756,1.876,1.8737,1.8739,1.8721,1.8723,1.8676,1.8702,1.8702,1.8702,1.8702,0,1.9431,1.9382,1.9321,1.9284,1.9229,1.9187,1.9134,1.9099,1.9052,1.9008,1.898,1.894,1.8891,1.8845,1.8815,1.8758,1.8744,1.8726,1.8718,1.8728,1.8731,1.8709,1.8711,1.8701,1.8701,1.8701,1.8701,0,1.941,1.9367,1.9299,1.9233,1.9216,1.9178,1.9122,1.9085,1.9052,1.8997,1.8982,1.8928,1.8873,1.8831,1.8759,1.8738,1.8679,1.8671,1.8698,1.8694,1.8674,1.8677,1.8611,1.8602,1.8634,1.8634,1.8634,0,1.9382,1.9344,1.9275,1.9244,1.9211,1.9161,1.9126,1.9085,1.905,1.8986,1.8958,1.8901,1.8853,1.8767,1.8722,1.8668,1.8659,1.8639,1.865,1.8663,1.866,1.8663,1.866,1.8638,1.8638,1.8638,1.8638,0,1.9338,1.932,1.927,1.9214,1.9174,1.9128,1.9081,1.9057,1.9008,1.8971,1.8914,1.8878,1.8805,1.875,1.8692,1.8658,1.8641,1.8635,1.8627,1.8637,1.8655,1.8647,1.8696,1.8636,1.8637,1.8637,1.8637,1.8637,1.9313,1.9279,1.9226,1.9173,1.9134,1.9092,1.9055,1.9018,1.897,1.8908,1.8887,1.883,1.8778,1.8698,1.8665,1.8621,1.862,1.8608,1.8605,1.8603,1.8605,1.8662,1.861,1.861,1.861,1.861,1.861,0,1.9269,1.9234,1.9186,1.9123,1.9082,1.9069,1.9017,1.8984,1.8934,1.8888,1.8842,1.8779,1.8726,1.8679,1.8624,1.8598,1.8588,1.8585,1.8586,1.858,1.8608,1.8621,1.8593,1.8593,1.8593,1.8593,1.8593,1.8593,1.9241,1.9184,1.916,1.9083,1.9049,1.8993,1.8965,1.8927,1.889,1.8821,1.8777,1.8746,1.87,1.8643,1.8594,1.8582,1.8563,1.8562,1.8548,1.8575,1.8577,1.8579,1.8591,1.8558,1.8558,1.8523,1.8523,1.8523]},{"header":{"parameterUnit":"m.s-1","parameterCategory":1,"la1":30.2991,"la2":30.254,"lo1":-89.0895,"lo2":-89.0444,"dy":0.0017,"dx":0.0017,"nx":28,"ny":28,"refTime":"2024-03-24T21:00:00:Z","depth":0,"parameterNumber":3,"parameterNumberName":"V-component_of_WINDS"},"data":[0,0,0,0,0,0,0,0,0,0,0,0,0,0,0,0,0,0,0,0,0,0,0,0,0,0,0,0,0,0,0,0,0,0,0,0,0,0,0,0,0,0,0,0,0,0,0,0,0,0,0,0,0,0,0,0,0,0,0.9789,0.979,0,0.9872,0.9873,0.9873,0.9881,0.988,0.9879,0.9879,0.9961,0.9964,0.9967,0,0,0,0,0,0,0,0,0,0,0,0,0,0.9634,0.9637,0.9789,0.979,0.9791,0.9871,0.9873,0.9874,0.9881,0.988,0.9879,0.9878,0.996,0.9963,0.9967,0,0,0,0,0,0,0,0,0,0,0,0,0,0.9707,0.9638,0.9789,0.9804,0.9807,0.9871,0.9873,0.9874,0.9881,0.988,0.9879,0.9878,0.9959,0.9963,0.9967,1.0021,0,0,0.9981,0.9983,0,0,0,0,0,0,0,0,0.9703,0.9713,0.9801,0.9804,0.9806,0.9865,0.9848,0.9923,0.9882,0.9853,0.9879,0.9877,0.993,0.9937,0.9955,1.0025,1.0029,0.9982,0.9984,0.9986,0.9988,0,0,0,0,0,0,0,0.9698,0.971,0.9822,0.9802,0.9805,0.9806,0.9815,0.9862,0.9898,0.9855,0.9856,0.9866,0.9931,0.9951,0.9957,1.003,0.9982,0.9986,0.9988,0.999,1.0146,1.0147,0,0,0,0,0,0,0.9691,0.9705,0.9819,0.9824,0.9751,0.981,0.982,0.9847,0.9897,0.9904,0.9867,0.9866,0.9943,0.9952,0.996,1.0024,0.9986,0.999,0.9993,1.0144,1.0146,1.0147,0,0,0,0,0,0,0.9687,0.9701,0.9816,0.9765,0.978,0.9814,0.9844,0.985,0.9869,0.9906,0.9912,0.9881,0.9943,0.9953,1.0005,1.0027,0.9993,0.9997,1.0142,1.0145,1.0147,1.0155,0,0,0,0,0,0,0.9683,0.9699,0.9721,0.9765,0.9782,0.9861,0.9846,0.9852,0.9877,0.9877,0.992,0.9926,0.9943,0.9999,1.001,1.0033,1.0,1.0141,1.0143,1.0146,1.0153,1.0157,1.016,0,0,0,0,0,0.9677,0.972,0.9722,0.9736,0.981,0.9862,0.9872,0.989,0.9879,0.99,0.9923,0.9925,1.0023,1.0004,1.0017,1.0041,1.0139,1.0143,1.0146,1.0151,1.0156,1.016,0,0,0,0,0,0,0.9677,0.9726,0.9729,0.9788,0.9821,0.9864,0.9891,0.9896,0.9932,0.993,0.995,0.996,1.0011,1.0031,1.0009,1.0095,1.008,1.0086,1.0079,1.0085,1.0088,1.0082,1.0004,0,0,0,0,0,0.9684,0.9723,0.9764,0.9811,0.9828,0.9857,0.988,0.9891,0.9926,0.994,0.9967,1.0,1.0038,1.0062,1.01,1.0156,1.0164,1.0179,1.0182,1.0185,1.019,1.0219,1.0225,1.0158,1.0158,1.0158,0,0,0.9699,0.973,0.9754,0.9812,0.9839,0.9878,0.9868,0.991,0.9939,0.9946,0.9996,1.0017,1.0055,1.0109,1.0134,1.0127,1.021,1.019,1.0192,1.0195,1.0223,1.0229,1.0235,1.016,1.016,1.0159,0,0,0.9745,0.9774,0.9816,0.9842,0.9883,0.9902,0.9912,0.9954,0.9968,1.0019,1.0025,1.0058,1.0124,1.015,1.0172,1.0225,1.0227,1.0237,1.0257,1.0285,1.029,1.0295,1.0312,1.0318,1.0242,1.0242,1.0242,0,0.9758,0.9817,0.9836,0.9878,0.9902,0.9911,0.9952,0.9977,1.0028,1.0044,1.0037,1.0118,1.0144,1.0203,1.0216,1.0234,1.0244,1.0232,1.0288,1.0293,1.0298,1.0314,1.0321,1.0242,1.0242,1.0242,1.0242,0,0.983,0.987,0.9899,0.9948,0.9976,1.0017,1.0041,1.0067,1.0075,1.0094,1.0145,1.0176,1.0219,1.0234,1.0243,1.0293,1.0288,1.0284,1.0269,1.0304,1.032,1.0327,1.0243,1.0243,1.0243,1.0243,0,0,0.9879,0.9936,0.9946,0.9968,1.0013,1.0044,1.0085,1.0127,1.0147,1.0182,1.0215,1.027,1.0266,1.029,1.0302,1.0326,1.0364,1.0319,1.032,1.0325,1.042,1.0421,1.0429,1.0366,1.0367,1.0368,1.0416,0,0.9928,1.0002,1.002,1.0082,1.0118,1.0126,1.0161,1.0192,1.021,1.0243,1.0263,1.0301,1.0294,1.0308,1.0333,1.0354,1.0383,1.0351,1.0395,1.0397,1.0385,1.0437,1.044,1.0483,1.0422,1.0423,1.0424,0,0.9997,1.0032,1.0098,1.0136,1.0152,1.0184,1.0222,1.0254,1.0288,1.0299,1.0326,1.0335,1.0376,1.0359,1.0415,1.0393,1.0412,1.0425,1.0427,1.0431,1.0412,1.0441,1.0497,1.0503,1.0435,1.0434,1.0433,0,1.0023,1.0087,1.0135,1.0153,1.0199,1.0221,1.0241,1.0273,1.0297,1.0331,1.0346,1.0383,1.0404,1.0432,1.045,1.0437,1.0503,1.0489,1.0512,1.0511,1.0525,1.0524,1.0584,1.0539,1.0539,1.0539,1.0539,0,1.0076,1.0116,1.0147,1.0176,1.022,1.0239,1.0281,1.0302,1.033,1.0362,1.0371,1.04,1.0423,1.0455,1.0469,1.0511,1.0521,1.053,1.0533,1.0528,1.0527,1.054,1.0537,1.0541,1.054,1.054,1.054,0,1.0113,1.0136,1.0188,1.0227,1.0238,1.0268,1.0301,1.0328,1.0346,1.0386,1.0397,1.0425,1.0462,1.0483,1.0531,1.054,1.0587,1.0589,1.0575,1.0576,1.0598,1.0595,1.0667,1.0677,1.0628,1.0628,1.0628,0,1.0145,1.0176,1.0218,1.024,1.026,1.0296,1.032,1.0339,1.0364,1.0403,1.0425,1.0464,1.0496,1.0555,1.0579,1.0615,1.0617,1.064,1.0622,1.0616,1.0615,1.0613,1.0615,1.0642,1.0643,1.0643,1.0644,0,1.0198,1.0208,1.0242,1.028,1.0308,1.0339,1.0369,1.0387,1.0411,1.0437,1.0476,1.0501,1.0549,1.0586,1.0623,1.0642,1.0646,1.0649,1.0656,1.0651,1.0641,1.0645,1.0582,1.0647,1.0647,1.0646,1.0646,1.0646,1.0233,1.0259,1.0293,1.033,1.0355,1.0383,1.041,1.0431,1.0464,1.0505,1.0514,1.0555,1.0586,1.0636,1.0656,1.0687,1.0682,1.0693,1.0695,1.0697,1.0697,1.0637,1.0694,1.0694,1.0694,1.0694,1.0694,0,1.0285,1.0307,1.0341,1.0383,1.0412,1.0414,1.0447,1.047,1.0506,1.0535,1.0566,1.0609,1.0645,1.0671,1.0707,1.0727,1.0729,1.0735,1.0733,1.0737,1.07,1.069,1.0732,1.0732,1.0732,1.0732,1.0732,1.0732,1.0316,1.036,1.0373,1.0429,1.045,1.049,1.0509,1.0534,1.0557,1.0605,1.0635,1.0652,1.0679,1.0717,1.0749,1.0756,1.0768,1.0773,1.078,1.0744,1.074,1.0736,1.0726,1.0776,1.0776,1.0814,1.0814,1.0815]}]]